www.pogodaiklimat.ru

Погода и климат >> Архив погоды >> Французская Полинезия >> Рапа


ПОГОДА на Рапа

  • Прогноз погоды на Рапа
  • Монитор погоды на Рапа

АРХИВ ПОГОДЫ на Рапа

Время (UTC), дата Ветер
(напр.,м/с)
 
Видим.   Явления Облачность Т
(С)
Тd
(С)
f
(%)
Тe
(С)
Тes
(С)
Комфортность P
(гПа)
Po
(гПа)
Тmin
(С)
Tmax
(С)
R
(мм)
R24
(мм)
S
(см)
01 16.04 СВ 1 н/о 9/6 600 м
[Cu med, cong Ci sp]
+24.6 +19.9 75 +30 +32 очень
душно
1015.7 1015.5
02 16.04 СВ 2 н/о н/о +24.3 +20.2 78 +30 +30 очень
душно
1015.6 1015.4
03 16.04 СВ 1
{4}
н/о н/о +23.9 +20.2 80 +30 +30 очень
душно
1015.6 1015.4
04 16.04 В 1 н/о н/о +23.5 +20.2 82 +29 +29 душно 1015.7 1015.5
05 16.04 Ю 1 н/о н/о +22.1 +19.6 86 +28 +28 душно 1016.2 1016.0
06 16.04 Ю 2
{2}
н/о н/о +22.1 +20.0 88 +28 +28 душно 1016.4 1016.2
07 16.04 Ю 1 н/о н/о +21.8 +19.7 88 +27 +27 душно 1016.1 1015.9
08 16.04 Ю 1 н/о н/о +21.8 +19.9 89 +27 +27 душно 1016.4 1016.2
09 16.04 Ю 1
{2}
н/о н/о +22.2 +20.5 90 +29 +29 очень
душно
1016.5 1016.3
10 16.04 СВ 1 н/о н/о +23.3 +21.0 87 +31 +31 очень
душно
1016.2 1016.0
11 16.04 С 1 н/о н/о +23.5 +20.6 84 +29 +29 душно 1015.8 1015.6
12 16.04 СВ 4
{5}
н/о н/о +23.8 +21.3 86 +30 +30 очень
душно
1015.0 1014.8 +25.6 +25.6
13 16.04 С 2 н/о н/о +23.7 +20.8 84 +30 +30 очень
душно
1014.6 1014.4
14 16.04 СВ 2 н/о н/о +23.7 +20.8 84 +30 +30 очень
душно
1014.4 1014.2
15 16.04 С 2
{9}
20 км 8/8 700 м
[Cu Sc]
+23.7 +20.8 84 +30 +30 очень
душно
1014.7 1014.5
16 16.04 С 2 25 км 9/9 300 м
[Cu Sc]
+23.9 +20.8 83 +30 +30 очень
душно
1015.2 1015.0
17 16.04 С 2 25 км 9/9 300 м
[Cu Sc]
+24.1 +20.6 81 +30 +30 очень
душно
1015.6 1015.4
18 16.04 С 3
{10}
н/о н/о +24.3 +20.6 80 +30 +30 очень
душно
1016.1 1015.9
19 16.04 С 2 30 км 9/9 300 м
[Cu Sc]
+24.8 +20.9 79 +31 +32 очень
душно
1016.1 1015.9
20 16.04 СЗ 2 30 км 9/9 300 м
[Cu Sc]
+24.9 +21.2 80 +31 +33 очень
душно
1016.2 1016.0
21 16.04 С 2
{11}
30 км 9/9 540 м
[Cu Sc]
+25.4 +21.5 79 +32 +34 очень
душно
1015.3 1015.1
22 16.04 СЗ 3 н/о н/о +25.3 +20.8 76 +32 +32 очень
душно
1014.5 1014.3
23 16.04 СЗ 3 н/о 9/9 300 м
[Cu Sc]
+25.7 +21.4 77 +33 +34 очень
душно
1013.9 1013.7
00 17.04 С 6
{13}
30 км 9/9 540 м
[Cu Sc]
+25.3 +21.4 79 +32 +32 очень
душно
1013.6 1013.4 +21.7
01 17.04 С 3 30 км 9/9 300 м
[Cu Sc]
+25.1 +21.6 81 +32 +32 очень
душно
1013.4 1013.2
02 17.04 С 3 н/о н/о +24.9 +22.0 84 +32 +32 очень
душно
1013.5 1013.3
03 17.04 С 3
{9}
н/о н/о +24.8 +22.1 85 +32 +32 очень
душно
1013.5 1013.3
04 17.04 С 3 н/о н/о +24.8 +22.5 87 +32 +32 очень
душно
1014.0 1013.8
05 17.04 С 3 н/о н/о +24.7 +22.0 85 +32 +32 очень
душно
1014.2 1014.0
06 17.04 С 6
{10}
н/о н/о +24.8 +22.3 86 +32 +32 очень
душно
1014.6 1014.4
07 17.04 С 3 н/о н/о +24.8 +22.3 86 +32 +32 очень
душно
1015.1 1014.9
08 17.04 С 3 н/о н/о +24.8 +22.3 86 +32 +32 очень
душно
1014.9 1014.7
09 17.04 СЗ 2
{10}
н/о н/о +24.6 +22.3 87 +32 +32 очень
душно
1014.1 1013.9
10 17.04 СЗ 3 н/о н/о +24.6 +22.5 88 +32 +32 очень
душно
1013.8 1013.6
11 17.04 СЗ 4 н/о н/о +24.5 +22.4 88 +32 +32 очень
душно
1012.8 1012.6
12 17.04 СЗ 7
{10}
н/о н/о +24.4 +22.3 88 +32 +32 очень
душно
1012.6 1012.4 +26.0 +26.0
13 17.04 СЗ 4 н/о н/о +24.6 +22.3 87 +32 +32 очень
душно
1012.1 1011.9
14 17.04 СЗ 4 н/о н/о +24.3 +22.4 89 +32 +32 очень
душно
1011.9 1011.7
15 17.04 СЗ 4
{15}
20 км 10/10 480 м
[Cu Sc]
+24.5 +22.2 87 +32 +32 очень
душно
1012.3 1012.1
16 17.04 СЗ 4 10 км слаб. дождь 10/10 300 м
[Cu Sc]
+24.4 +22.3 88 +32 +32 очень
душно
1012.7 1012.5 0.4
17 17.04 СЗ 3 10 км слаб. дождь 10/10 300 м
[Cu Sc]
+24.4 +22.5 89 +32 +32 очень
душно
1013.1 1012.9 2
18 17.04 Ю 5
{14}
15 км в посл. час ливневой дождь 10/10 90 м
[Cu Sc]
+23.3 +20.8 86 +31 +31 очень
душно
1013.6 1013.4 2
19 17.04 Ю 1 10 км слаб. дождь 10/10 100 м
[Cu Sc]
+22.5 +20.6 89 +29 +29 очень
душно
1013.9 1013.7 1
20 17.04 Ю 2 15 км в посл. час дождь 10/10 100 м
[Cu Sc]
+22.0 +20.3 90 +28 +28 душно 1013.9 1013.7 0.4
21 17.04 Ю 2
{11}
8000 м дождь {ливн. осадки} 10/10 90 м
[Cu Sc]
+21.9 +20.4 91 +28 +28 душно 1013.6 1013.4 3
22 17.04 Ю 3 н/о н/о +21.2 +19.3 89 +26 +26 душно 1013.0 1012.8 2
23 17.04 Ю 3 15 км в посл. час дождь {морось} 10/10 100 м
[Cu Sc]
+21.5 +19.1 86 +26 +26 душно 1012.6 1012.4 0.4
00 18.04 Ю 5
{11}
10 км дождь {ливн. осадки} 10/10 90 м
[Cu Sc]
+21.0 +18.8 87 +25 +25 комфорт 1012.4 1012.2 +20.9 2
01 18.04 ЮВ 1 15 км в посл. час дождь {морось} 10/10 100 м
[Cu Sc]
+20.6 +18.4 87 +26 +26 душно 1012.4 1012.2 0.6
02 18.04 Ю 1 н/о н/о +21.1 +16.9 77 +25 +25 комфорт 1012.6 1012.4
03 18.04 ЮВ 1
{7}
н/о н/о +20.6 +16.8 79 +25 +25 комфорт 1013.2 1013.0 0.6
04 18.04 ЮВ 1 н/о н/о +20.9 +16.5 76 +26 +26 душно 1013.5 1013.3
05 18.04 Ю 1 н/о н/о +20.5 +17.3 82 +25 +25 комфорт 1014.0 1013.8
06 18.04 ЮЗ 1
{5}
н/о н/о +21.3 +17.9 81 +25 +25 комфорт 1014.7 1014.5
07 18.04 ЮВ 1 н/о н/о +21.3 +16.5 74 +25 +25 комфорт 1014.7 1014.5
08 18.04 Ю 1 н/о н/о +20.6 +17.2 81 +26 +26 душно 1014.7 1014.5
09 18.04 ЮЗ 1
{3}
н/о н/о +20.7 +16.9 79 +26 +26 душно 1014.6 1014.4
10 18.04 Ю 1 н/о н/о +20.0 +17.6 86 +24 +24 комфорт 1014.4 1014.2 0.2
11 18.04 Ю 1 н/о н/о +20.0 +17.6 86 +24 +24 комфорт 1013.7 1013.5
12 18.04 Ю 2
{4}
н/о н/о +20.1 +17.5 85 +24 +24 комфорт 1013.6 1013.4 +24.8 +24.8 0.2
13 18.04 Ю 1 н/о н/о +19.1 +17.4 90 +22 +22 комфорт 1014.2 1014.0 0.6
14 18.04 Ю 1 н/о н/о +18.8 +17.5 92 +22 +22 комфорт 1014.0 1013.8 2
15 18.04 Ю 1
{3}
15 км осадки на расстоянии 10/10 180 м
[Cu Sc]
+19.1 +18.1 94 +22 +22 комфорт 1013.8 1013.6 2
16 18.04 ЮЗ 1 25 км 9/9 600 м
[Cu Sc]
+19.1 +18.1 94 +22 +22 комфорт 1014.4 1014.2 0.2
17 18.04 Ю 1 н/о н/о +19.2 +18.2 94 +23 +23 комфорт 1014.7 1014.5
18 18.04 штиль 0
{2}
30 км {ливн. осадки, дождь} 9/9 630 м
[Cu Sc]
+19.9 +18.9 94 +23 +23 комфорт 1015.0 1014.8 0.2
19 18.04 штиль 0 30 км 9/9 600 м
[Cu Sc]
+21.0 +18.4 85 +25 +26 комфорт 1015.3 1015.1
20 18.04 СВ 1 30 км 9/9 600 м
[Cu Sc]
+22.0 +18.4 80 +27 +28 душно 1015.2 1015.0
21 18.04 СВ 1
{8}
15 км осадки на расстоянии 9/9 480 м
[Cu Sc]
+21.0 +17.8 82 +26 +28 душно 1014.6 1014.4
22 18.04 СВ 2 н/о н/о +21.9 +18.1 79 +27 +27 душно 1013.5 1013.3
23 18.04 СВ 2 30 км 9/9 300 м
[Cu Sc]
+22.4 +18.4 78 +28 +29 душно 1012.6 1012.4
00 19.04 СВ 3
{5}
30 км 9/9 540 м
[Cu Sc]
+22.2 +18.6 80 +27 +28 душно 1012.7 1012.5 +18.8
01 19.04 Ю 1 н/о слаб. морось 10/10 300 м
[Cu Sc]
+21.0 +18.6 86 +27 +27 душно 1013.2 1013.0 2
02 19.04 СВ 1 н/о н/о +20.4 +18.5 89 +25 +25 комфорт 1013.9 1013.7 0.8
03 19.04 СВ 3
{9}
н/о н/о +20.5 +18.8 90 +25 +25 комфорт 1013.8 1013.6 4
04 19.04 Ю 1 н/о н/о +20.1 +18.4 90 +25 +25 комфорт 1013.8 1013.6 0.0
05 19.04 СВ 4
{9}
н/о н/о +20.3 +18.1 87 +24 +24 комфорт 1014.1 1013.9 0.0
06 19.04 Ю 1
{7}
н/о н/о +20.0 +18.3 90 +24 +24 комфорт 1014.6 1014.4 0.0
07 19.04 В 2 н/о н/о +21.2 +18.0 82 +25 +25 комфорт 1014.3 1014.1 0.0
08 19.04 ЮВ 1 н/о н/о +20.4 +17.4 83 +25 +25 комфорт 1014.5 1014.3
09 19.04 ЮВ 1
{5}
н/о н/о +19.8 +17.8 88 +24 +24 комфорт 1014.3 1014.1 0.0
10 19.04 Ю 1 н/о н/о +19.3 +17.8 91 +22 +22 комфорт 1014.5 1014.3 0.4
11 19.04 Ю 1 н/о н/о +19.4 +18.1 92 +23 +23 комфорт 1013.8 1013.6 0.4
12 19.04 Ю 2
{3}
н/о н/о +19.3 +18.1 93 +22 +22 комфорт 1013.6 1013.4 +22.6 +22.6 1
13 19.04 Ю 1 н/о н/о +19.3 +18.0 92 +23 +23 комфорт 1013.5 1013.3 2
14 19.04 В 2 н/о н/о +20.2 +18.1 88 +24 +24 комфорт 1013.0 1012.8
15 19.04 В 2
{11}
20 км {дождь} 10/10 600 м
[Cu Sc]
+20.3 +17.1 82 +24 +24 комфорт 1012.7 1012.5 2
16 19.04 В 3 15 км осадки на расстоянии 10/10 300 м
[Cu Sc]
+20.7 +17.5 82 +25 +25 комфорт 1013.2 1013.0 0.2
17 19.04 В 2 8000 м слаб. дождь 10/10 300 м
[Cu Sc]
+20.5 +17.9 85 +25 +25 комфорт 1013.9 1013.7 1
18 19.04 В 5
{8}
15 км в посл. час дождь {ливн. осадки} 10/10 700 м
[Cu Sc]
+20.5 +16.9 80 +24 +24 комфорт 1015.0 1014.8 1
19 19.04 В 2 15 км осадки на расстоянии 10/10 300 м
[Cu Sc]
+20.4 +17.2 82 +24 +24 комфорт 1014.8 1014.6
20 19.04 В 2 н/о н/о +20.1 +16.7 81 +23 +23 комфорт 1014.1 1013.9 0.2
21 19.04 В 2
{13}
9000 м дождь {морось} 10/10 90 м
[Cu Sc]
+19.8 +17.6 87 +23 +23 комфорт 1013.5 1013.3 1
22 19.04 СВ 4 9000 м слаб. морось {дождь} 10/10 300 м
[Cu Sc]
+19.8 +17.0 84 +22 +22 комфорт 1012.3 1012.1 0.2
23 19.04 СВ 3 н/о в посл. час морось 10/10 300 м
[Cu Sc]
+20.1 +17.3 84 +23 +23 комфорт 1011.6 1011.4 0.4
00 20.04 В 9
{14}
9000 м слаб. дождь {морось} 10/10 90 м
[Cu Sc]
+20.4 +19.1 92 +24 +24 комфорт 1011.1 1010.9 +19.2 1
01 20.04 В 5 6000 м слаб. дождь 10/10 100 м
[Cu Sc]
+19.9 +18.6 92 +23 +23 комфорт 1011.0 1010.8 2
02 20.04 В 6 н/о н/о +20.0 +19.0 94 +23 +23 комфорт 1010.9 1010.7 6
03 20.04 В 5
{20}
н/о н/о +20.1 +19.1 94 +23 +23 комфорт 1010.5 1010.3 10
04 20.04 СВ 5 н/о н/о +20.7 +19.7 94 +25 +25 комфорт 1010.1 1009.9 16
05 20.04 В 4 н/о н/о +20.9 +20.1 95 +26 +26 душно 1009.8 1009.6 17
06 20.04 С 2
{13}
н/о н/о +22.6 +21.8 95 +30 +30 очень
душно
1009.3 1009.1 52
07 20.04 З 4 н/о н/о +22.9 +21.7 93 +31 +31 очень
душно
1009.9 1009.7 21
08 20.04 ЮЗ 2 н/о н/о +20.2 +18.7 91 +24 +24 комфорт 1009.8 1009.6 12
09 20.04 ЮЗ 2
{17}
н/о н/о +20.1 +18.9 93 +24 +24 комфорт 1009.9 1009.7 41
10 20.04 В 3 н/о н/о +19.5 +18.2 92 +22 +22 комфорт 1009.5 1009.3 7
11 20.04 В 2 н/о н/о +19.5 +18.0 91 +23 +23 комфорт 1009.1 1008.9 2
12 20.04 З 3
{15}
н/о н/о +19.3 +18.0 92 +22 +22 комфорт 1009.5 1009.3 +23.3 +23.3 11
13 20.04 З 3 н/о н/о +18.6 +17.1 91 +20 +20 1009.0 1008.8 6
14 20.04 СЗ 4 н/о н/о +18.7 +16.7 88 +20 +20 1010.1 1009.9 1
15 20.04 ЮЗ 1
{16}
6000 м дождь 10/10 90 м
[Cu Sc]
+18.6 +16.9 90 +21 +21 комфорт 1010.8 1010.6 11
16 20.04 З 2 15 км в посл. час дождь {морось} 10/10 300 м
[Cu Sc]
+18.7 +16.1 85 +20 +20 1011.7 1011.5 0.4
17 20.04 З 2 15 км в посл. час дождь {морось} 10/10 300 м
[Cu Sc]
+18.9 +16.3 85 +21 +21 комфорт 1012.2 1012.0 2
18 20.04 Ю 2
{8}
9000 м дождь {морось} 10/10 330 м
[Cu Sc]
+18.8 +17.3 91 +21 +21 комфорт 1013.2 1013.0 3
19 20.04 Ю 1 15 км в посл. час дождь {морось} 10/10 300 м
[Cu Sc]
+19.2 +17.7 91 +23 +23 комфорт 1013.2 1013.0 2
20 20.04 СЗ 1 9000 м дождь {морось} 10/10 300 м
[Cu Sc]
+19.1 +16.9 87 +22 +22 комфорт 1013.1 1012.9 0.4
21 20.04 З 1
{3}
25 км в посл. час дождь {морось} 10/10 540 м
[Cu Sc]
+19.5 +17.3 87 +23 +23 комфорт 1012.4 1012.2 3
22 20.04 З 2 9000 м дождь {морось} 10/10 300 м
[Cu Sc]
+18.8 +16.6 87 +21 +21 комфорт 1012.3 1012.1 0.8
23 20.04 ЮЗ 2 30 км в посл. час дождь {морось} 9/9 600 м
[Cu Sc]
+21.5 +16.7 74 +25 +27 комфорт 1011.6 1011.4 0.0
00 21.04 СЗ 3
{9}
30 км {дождь, морось} 6/6 630 м
[Cu Sc]
+21.9 +17.1 74 +26 +29 душно 1011.2 1011.0 +18.2 0.8
01 21.04 З 3 30 км 9/9 300 м
[Cu Sc]
+20.9 +16.1 74 +25 +25 комфорт 1011.3 1011.1
02 21.04 СЗ 2 н/о н/о +21.3 +15.6 70 +25 +25 комфорт 1011.6 1011.4
03 21.04 З 3
{11}
н/о н/о +21.5 +15.1 67 +25 +25 комфорт 1011.8 1011.6
04 21.04 З 2 н/о н/о +20.8 +14.7 68 +24 +24 комфорт 1012.6 1012.4
05 21.04 З 3 н/о н/о +21.0 +14.2 65 +24 +24 комфорт 1013.3 1013.1
06 21.04 З 3
{9}
н/о н/о +19.6 +14.8 74 +22 +22 комфорт 1013.7 1013.5
07 21.04 З 1 н/о н/о +20.2 +14.8 71 +24 +24 комфорт 1014.4 1014.2
08 21.04 ЮЗ 1 н/о н/о +19.4 +14.9 75 +23 +23 комфорт 1014.7 1014.5
09 21.04 Ю 1
{5}
н/о н/о +18.6 +15.3 81 +21 +21 комфорт 1014.5 1014.3
10 21.04 ЮЗ 1 н/о н/о +18.3 +15.4 83 +20 +20 1014.6 1014.4
11 21.04 З 1 н/о н/о +19.3 +14.5 74 +22 +22 комфорт 1014.7 1014.5
12 21.04 З 3
{8}
н/о н/о +20.0 +14.4 70 +22 +22 комфорт 1014.5 1014.3 +22.1 +22.1
13 21.04 СЗ 2 н/о н/о +20.6 +13.1 62 +24 +24 комфорт 1014.5 1014.3
14 21.04 З 1 н/о н/о +19.8 +13.9 69 +23 +23 комфорт 1014.5 1014.3
15 21.04 З 1
{7}
20 км 3/3 700 м
[Cu med, cong]
+20.4 +13.4 64 +24 +24 комфорт 1015.1 1014.9
16 21.04 Ю 1 н/о н/о +17.8 +14.1 79 +19 +19 1016.2 1016.0
17 21.04 З 2 30 км 6/5 600 м
[Cu Sc Ci fib]
+20.1 +15.3 74 +23 +24 комфорт 1017.0 1016.8
18 21.04 СЗ 3
{7}
30 км 6/6 700 м
[Cu Sc Ci fib]
+21.8 +14.7 64 +25 +26 комфорт 1017.6 1017.4
19 21.04 З 2 30 км 6/6 600 м
[Cu Sc Ci fib]
+21.6 +15.2 67 +25 +28 комфорт 1017.9 1017.7 0.2
20 21.04 СЗ 2 30 км 6/6 600 м
[Cu Sc Ci fib]
+22.9 +15.7 64 +27 +32 душно 1018.3 1018.1
21 21.04 З 2
{8}
30 км {ливн. осадки, дождь} 8/6 700 м
[Cu Sc Ci fib]
+22.7 +15.5 64 +27 +32 душно 1017.8 1017.6 0.2
22 21.04 З 1 н/о н/о +23.4 +15.7 62 +28 +28 душно 1017.3 1017.1
23 21.04 В 1 н/о н/о +23.0 +15.8 64 +27 +27 душно 1016.5 1016.3
00 22.04 Ю 2
{4}
35 км {ливн. осадки, дождь} 6/5 700 м
[Cu Sc Ci fib]
+22.6 +16.2 67 +27 +31 душно 1016.8 1016.6 +17.6
01 22.04 С 1 35 км 5/5 600 м
[Cu Sc Ci fib]
+22.9 +16.0 65 +27 +30 душно 1016.9 1016.7
02 22.04 С 2 н/о н/о +22.2 +15.8 67 +26 +26 душно 1017.2 1017.0
03 22.04 Ю 1
{5}
н/о н/о +21.6 +16.3 72 +25 +25 комфорт 1017.8 1017.6
04 22.04 Ю 1 н/о н/о +19.9 +16.1 79 +24 +24 комфорт 1018.8 1018.6
05 22.04 ЮВ 1 н/о н/о +19.8 +16.4 81 +24 +24 комфорт 1019.1 1018.9
06 22.04 Ю 1
{5}
н/о н/о +19.9 +16.5 81 +24 +24 комфорт 1019.8 1019.6
07 22.04 ЮЗ 1 н/о н/о +19.5 +16.3 82 +23 +23 комфорт 1020.1 1019.9
08 22.04 ЮВ 1 н/о н/о +19.7 +16.0 79 +23 +23 комфорт 1019.8 1019.6
09 22.04 СВ 2
{10}
н/о н/о +21.2 +15.7 71 +24 +24 комфорт 1019.4 1019.2
10 22.04 СВ 2 н/о н/о +20.6 +16.2 76 +24 +24 комфорт 1019.2 1019.0
11 22.04 В 2 н/о н/о +21.0 +15.1 69 +25 +25 комфорт 1019.1 1018.9
12 22.04 ЮВ 2
{7}
н/о н/о +19.1 +15.6 80 +21 +21 комфорт 1018.8 1018.6 +24.1 +24.1
13 22.04 Ю 1 н/о н/о +18.4 +15.6 84 +20 +20 1018.6 1018.4
14 22.04 В 1 н/о н/о +19.5 +15.2 76 +22 +22 комфорт 1018.2 1018.0
15 22.04 ЮВ 1
{5}
20 км 6/5 700 м
[Cu Sc Ci fib]
+18.8 +15.1 79 +21 +21 комфорт 1018.6 1018.4
16 22.04 Ю 1 н/о 9/6 600 м
[Cu Sc Ci sp]
+18.6 +15.5 82 +21 +21 комфорт 1019.3 1019.1
17 22.04 Ю 1 25 км 9/9 600 м
[Cu Sc]
+18.6 +15.8 84 +21 +21 комфорт 1019.6 1019.4
18 22.04 ЮВ 1
{3}
30 км 9/8 700 м
[Cu Sc Ci fib]
+19.1 +15.8 81 +22 +22 комфорт 1019.7 1019.5
19 22.04 СВ 2 н/о 8/6 600 м
[Cu Sc Ci fib]
+21.8 +15.2 66 +25 +28 комфорт 1020.1 1019.9
20 22.04 СВ 2 н/о 6/6 600 м
[Cu Sc Ci fib]
+22.2 +14.8 63 +26 +30 душно 1019.8 1019.6
21 22.04 СВ 2 н/о н/о +22.9 +15.7 64 +27 +27 душно 1018.9 1018.7
22 22.04 СВ 3 30 км 9/9 600 м
[Cu Sc]
+22.9 +17.4 71 +28 +29 душно 1018.8 1018.6
23 22.04 СВ 3 н/о н/о +22.4 +16.7 70 +27 +27 душно 1017.6 1017.4
00 23.04 С 5
{11}
30 км 9/9 600 м
[Cu Sc]
+22.4 +16.4 69 +27 +27 душно 1017.1 1016.9 +18.3

 

Местоположение метеостанции Рапа (Французская Полинезия): широта -27.61 долгота -144.30 высота над уровнем моря 2 м.

В архиве по умолчанию представлена погода на Рапа за последнюю неделю. Архивные данные за месяц целиком и за предыдущие месяцы, начиная с января 2011 года, Вы можете получить, выбрав интересующий диапазон дат из раскрывающегося списка и нажав кнопку "Ввод!".


*Определитесь, кто Вы:
робот инопланетянин человек

Внимание! Время в таблицах - всемирное. Для получения местного времени необходимо прибавить поправку, которая равна -10 ч.

Смотрите также архив погоды в соседних городах и на ближайших метеорологических станциях:

Погода на Тубуаи (Французская Полинезия) (697 км)
Погода в Херехеретуэ (Французская Полинезия) (861 км)
Погода в Рикитее (Французская Полинезия) (1068 км)
Погода на Хао (Французская Полинезия) (1118 км)
Погода на Анаа (Французская Полинезия) (1147 км)
Погода в Таутире (Французская Полинезия) (1204 км)
Погода в Таити Фааа (Французская Полинезия) (1244 км)
Погода на Острове Питкерн (Питкерн) (1442 км)
Погода в Бора-Бора аэропорту (Французская Полинезия) (1458 км)
Погода на Такароа (Французская Полинезия) (1462 км)

Пояснения к столбцам:

Ветер - указаны скорость ветра в м/с - средняя за 10 мин, порывы в срок и между сроками (в фигурных скобках) и направление, откуда дует ветер: С - северный, СВ - северо-восточный, В - восточный, ЮВ - юго-восточный, Ю - южный, ЮЗ - юго-западный, З - западный, СЗ - северо-западный.
Видимость - горизонтальная дальность видимости в метрах или километрах. При видимости от 1 до 10 км при отсутствии осадков обычно наблюдается дымка, при ухудшении видимости до 1 км и менее - туман. В сухую погоду видимость может ухудшаться дымом, пылью или мглою.
Явления - указаны атмосферные явления, наблюдавшиеся в срок или в последний час перед сроком; фигурными скобками обозначены явления, наблюдавшиеся между сроками (за 1-3 часа до срока); квадратными скобками обозначены град или гололедные отложения с указанием их диаметра в мм.
Облачность - указаны через наклонную черту общая и нижняя облачность в баллах и высота нижней границы облаков в метрах; квадратными скобками обозначены формы облаков: Ci - перистые, Cs - перисто-слоистые, Cc - перисто-кучевые, Ac - высококучевые, As - высокослоистые, Sc - слоисто-кучевые, Ns - слоисто-дождевые, Cu - кучевые, Cb - кучево-дождевые. Подробнее классификацию облаков см. в Атласе облаков (PDF).
T - Температура воздуха - температура, измеренная на высоте 2 м над землей.
Td - Температура точки росы - температура, при понижении до которой содержащийся в воздухе водяной пар достигнет насыщения.
f - Относительная влажность воздуха - влажноcть воздуха, измеренная на высоте 2 м над землей.
Te - Эффективная температура - температура, которую ощущает одетый по сезону человек в тени. Характеристика душности погоды. При расчете учитывается влияние влажности воздуха и скорости ветра на теплоощущения человека.
Tes - Эффективная температура на солнце - температура, которую ощущает человек, с поправкой на солнечный нагрев. Характеристика знойности погоды. Зависит от высоты солнца над горизонтом, облачности и скорости ветра. Ночью, в пасмурную погоду, а также при ветре 12 м/с и более поправка равна нулю.
P - Атмосферное давление - приведенное к уровню моря атмосферное давление.
Po - Атмосферное давление - измеренное на уровне метеостанции атмосферное давление.
Tmin - Минимальная температура - минимум температуры воздуха на высоте 2 м над землей.
Tmax - Максимальная температура - максимум температуры воздуха на высоте 2 м над землей.
R - Количество осадков - Количество выпавших осадков за период времени, мм. При наведении курсора мыши на число - период времени, за который выпало указанное количество осадков.
R24 - Количество осадков - Количество выпавших осадков за 24 часа, мм.
S - Снежный покров - Высота снежного покрова, см. При наведении курсора мыши на число - состояние снежного покрова и степень покрытия местности в баллах.